Starlink 2046

operational
NORAD ID: 47354 Int'l Des: 2021-005 Owner: SPXS Country: US Constellation: starlink
LEOCIRCULARSTARLINK_TYPE

About Starlink 2046

Description loading...

Live Position

Loading 3D Globe...

Upcoming Passes

Altitude History

Altitude vs Time

uPlot chart will show altitude changes over time

Two-Line Element Set

1 47354U 21005F 25303.18222170 -.00000519 00000-0 -15927-4 0 9992
2 47354 53.0541 253.0322 0001284 81.4355 278.6780 15.06390857263857
Epoch: Oct 30, 2025 • Age: 13 hours

Current Status

Altitude 547.0 km
Velocity 7.59 km/s
Sub-Earth Point 13.07°N, 36.4°W
Launch Date Jan 20, 2021
Age 4.7 years
Type internet

Technical Details

Classification Payload
Mass 260.00 kg
Dry Mass 248.00 kg
Total Mass 260.00 kg
Length 0.20 m
Diameter 2.80 m
Span 9.00 m
Shape Box + pan
Manufacturer SPXS
Bus Type Starlink
Phase Status In Orbit
Owner/State SPXS/US

Large Constellations

Loading constellations...